User: anonymous   Login
Location: Lone Wolf Observatory
(41.0360°N, 89.2260°W)
Time: 05:39:14
(UTC-05:00)
Language:

Cosmos 1378 Rocket - Orbit

View from above orbital plane
View from above orbital plane
View from above satellite
View from above satellite

Ground track
Ground track

The orbit data is extracted from the following two-line orbital elements,

1 13272U 82059B   15214.55394846  .00000217  00000-0  22934-4 0  9990
2 13272 082.5089 062.3943 0017719 214.4515 145.5553 14.84397936790326
Epoch (UTC): 02 August 2015 13:17:41
Eccentricity: 0.0017719
inclination: 82.5089°
perigee height: 603 km
apogee height: 628 km
right ascension of ascending node: 62.3943°
argument of perigee: 214.4515°
revolutions per day: 14.84397936
mean anomaly at epoch: 145.5553°
orbit number at epoch: 79032

The dashed part of the orbit path shows where the satellite is in the earth's shadow,  

DLR